OneWeb SL0700

operational
NORAD ID: 61606 Int'l Des: 2024-188 Owner: ONEWEBE Country: UK Constellation: oneweb
LEOCIRCULARPOLARONEWEB_TYPE

About OneWeb SL0700

Description loading...

Live Position

Loading 3D Globe...

Upcoming Passes

Altitude History

Altitude vs Time

uPlot chart will show altitude changes over time

Two-Line Element Set

1 61606U 24188N 25298.41786097 -.00000084 00000-0 -27731-3 0 9997
2 61606 87.8778 82.9410 0002237 84.6988 275.4395 13.10368989 52557
Epoch: Oct 25, 2025 • Age: 14 hours

Current Status

Altitude 1246.9 km
Velocity 7.23 km/s
Sub-Earth Point -61.69°S, 38.63°E
Launch Date Oct 20, 2024
Age 1 years
Type internet

Technical Details

Classification Payload
Mass 148.00 kg
Dry Mass 140.00 kg
Total Mass 148.00 kg
Length 1.30 m
Diameter 1.00 m
Span 5.00 m
Shape Trapezoid+2 pan
Manufacturer ONEWUS
Bus Type ARROW
Phase Status In Orbit
Owner/State ONEWEBE/UK

Large Constellations

Loading constellations...